URSA MAIOR (42776 NORAD) Tracking and Keplerian Element Data

This shows tracking and keplerian element data for the satellite.

Feedback or suggestion? Click here.




ElementValue
Catalog42776
NameURSA MAIOR
Epoch Orbit8206
Epoch Day349.53139995
Epoch Year2018
RAAN45.5071
Inclination97.3783
Eccentricity0.0014932
Argument of Perigee144.472
Mean Anonmoly215.7513
Mean Motion15.21146765
Decay Rate7.08E-06
L11 42776U 17036M 18349.53139995 .00000708 00000-0 34796-4 0 9990
L22 42776 97.3783 45.5071 0014932 144.4720 215.7513 15.21146765 82066

Live tracking and technical data element details for URSA MAIOR (NORAD 42776). URSA MAIOR can be tracked NOW for your location showing map with azimuth and elevation plus other details from your city location.

Track the satellite on the map from your city or location and see movement details for azimuth, elevation, latitude, longitude, range, height, and movement on the map or in text.







IsCatalogInMostPopularTable: catalog: 42776, numindb: 132
Update: records affected: 1



GetName: 42776 URSA MAIOR

Hit Count: updated at: Sun, 16 Dec 2018 04:47:29 GMT